FENGYUN 1C DEB, 31899

Orbit data source: Space-Track

FENGYUN 1C DEB, 31899 is space debris in SSO originally from a launch on Mon, 10 May 1999 UTC launched from the Taiyaun Space Center, China (TSC). Fengyun 1C debris stems from the Chinese weather satellite Fengyun-1C, which was intentionally destroyed by a Chinese anti-satellite missile in 2007. This event dramatically increased the amount of space debris, with thousands of trackable fragments posing hazards to satellites and human spaceflight. The Fengyun 1C debris cloud has become a focal point in discussions about space sustainability and the need for international regulations to prevent the creation of new debris.

Loading next visibility...
Identifier
31899, 1999-025CLA
Orbit
SSO
Country
Flag of CNCN / PRC
Related business
Manufacturer
Unknown
Mission
Spacecraft
Bus & Motor
Unknown
Mass
Unknown
Launch date (UTC)
1999-05-10 (27 years ago)
Launch vehicle
Unknown
Launch site
Taiyaun Space Center, China (TSC)
Object type
Payload
Rocket body
Debris
Shape & HBR
Unknown shape, 0.1 m
Radar Cross Section
Small (<0.1 m²)

Expand to show TLE details & history
Last TLE update: 11 hours ago

TLE from 11 hours ago
0 FENGYUN 1C DEB
1 31899U 99025CLA 26146.07677574  .00001083  00000-0  90971-3 0  9998
2 31899 102.0791 260.2653 0181662 123.3876 238.4796 13.84004672698377
Epoch: 2026-05-26T01:50Z
TLE epoch observation values (Epoch: 2026-05-26T01:50:33.423Z)
Latitude
-0.00004°
Longitude
-11.02935°
Altitude
1,023.799 km
Speed
7.304 km/s
True Right ascension
17h 21m 03s
True Declination
0° 00' 00"
Sunlit
Object was in full shadow at epoch
Visualization orbit readout
Latitude
Unknown
Longitude
Unknown
Altitude
Unknown
Speed
Unknown
Apparent Right ascension
Unknown
Apparent Declination
Unknown
Sunlit
N/A
Visualization observer readout
Local Sidereal Time
22:19:22
Azimuth
Unknown
Elevation
Unknown
Doppler factor
Unknown
Orbital elements
Apogee altitude
1,080.182 km
Perigee altitude
814.039 km
Semi-major axis
7,325.248 km
Eccentricity
0.01817
Inclination
102.0791°
RAAN
260.2653°
Arg. of periapsis
123.3876°
True anomaly
236.72615°
Mean anomaly
238.4796°
Eccentric anomaly
237.60078°
Mean motion
3.46186 °/min
Orbital period
103.99 mins
BSTAR
0.00090971
Loading maneuver chart data...
Computing Atmospheric mass density...

Documentation

Showing up to 5 results
|